Location: Santa Barbara
(34.4500°N, 119.7700°W)
Time: 22:39:32
(UTC-08:00)

Cosmos 1626 Rocket - Visible Passes

Search period start: 26 November 2014 00:00
Search period end: 06 December 2014 00:00
Orbit: 604 x 633 km, 82.5° (Epoch: 26 November)

Date Brightness Start Highest point End Pass type
(mag) Time Alt. Az. Time Alt. Az. Time Alt. Az.
26 Nov 3.5 06:04:19 10° N 06:08:39 79° W 06:12:56 10° S visible
26 Nov 3.4 18:31:27 10° S 18:35:53 79° E 18:37:24 41° NNE visible
27 Nov 6.5 04:45:33 10° NE 04:47:47 14° ENE 04:50:00 10° ESE visible
27 Nov 5.5 17:14:58 10° E 17:15:48 10° E 17:16:37 10° ENE visible
27 Nov 4.3 18:48:47 10° SSW 18:53:06 51° W 18:55:40 23° NNW visible
28 Nov 5.7 05:01:32 10° NNE 05:05:11 26° ENE 05:08:48 10° SE visible
28 Nov 4.8 17:29:28 10° SE 17:32:46 21° E 17:36:03 10° NE visible
28 Nov 5.6 19:06:41 10° SW 19:10:24 26° WNW 19:13:52 11° NNW visible
29 Nov 4.3 05:18:15 10° N 05:22:29 52° E 05:26:40 10° SSE visible
29 Nov 4.0 17:45:40 10° SSE 17:49:49 40° E 17:53:57 10° NNE visible
29 Nov 6.5 19:25:31 10° WSW 19:27:49 14° WNW 19:30:07 10° NW visible
30 Nov 3.4 05:35:23 10° N 05:39:41 75° W 05:43:58 10° S visible
30 Nov 3.5 18:02:31 10° S 18:06:57 82° E 18:11:22 10° N visible
01 Dec 6.5 04:16:28 10° NE 04:18:50 14° ENE 04:21:12 10° ESE visible
01 Dec 4.1 05:52:51 10° NNW 05:56:48 36° W 06:00:44 10° SSW visible
01 Dec 4.5 18:19:53 10° SSW 18:24:10 49° W 18:28:27 10° N visible
02 Dec 5.5 04:32:32 10° NNE 04:36:14 27° ENE 04:39:54 10° SE visible
02 Dec 4.9 06:10:51 10° NW 06:13:50 18° W 06:16:48 10° SW visible
02 Dec 5.8 18:37:49 10° SW 18:41:28 25° WNW 18:45:07 10° NNW visible
03 Dec 4.1 04:50:34 19° N 04:53:31 55° E 04:57:44 10° SSE visible
03 Dec 4.0 17:16:42 10° SSE 17:20:51 42° E 17:25:00 10° NNE visible
03 Dec 6.6 18:56:46 10° WSW 18:58:53 13° WNW 19:00:59 10° NW visible
04 Dec 3.3 05:08:53 33° NNW 05:10:43 72° W 05:14:59 10° S visible
04 Dec 3.5 17:33:34 10° S 17:37:59 86° E 17:42:24 10° N visible
05 Dec 6.3 03:49:59 15° ENE 03:49:59 15° ENE 03:52:22 10° ESE visible
05 Dec 4.1 05:27:13 33° WNW 05:27:49 34° W 05:31:43 10° SSW visible
05 Dec 4.7 17:50:58 10° SSW 17:55:13 46° W 17:59:27 10° N visible
